Theta_e
332 327 331 330 332 329 319 317 303 310 307 301 302 303 302 310 311 308 309 312 309 312 315 319 319 318 315 313 316 315 317 315 315 308 309 330 351 353 354 350 355 355 354 355 357 356 355 357 357 356 356 356 356 355 355 355 355 355 356 356 356 356 355 355 354 354 353 352 352 351 351 350 349 348 348 346 344 344 344 344 342 342 341 347 347 347 347 347 347 349 348 348 349 348 348 348 348
325 326 327 330 328 319 311 315 306 304 305 301 303 305 304 309 309 307 308 310 311 313 316 319 319 319 318 318 318 319 316 319 321 321 336 347 351 351 356 354 353 352 353 355 356 354 354 355 357 356 356 356 356 355 355 355 355 355 355 355 355 355 355 354 354 353 353 352 352 351 351 350 349 348 347 345 345 345 345 343 342 342 343 343 348 347 347 347 347 348 347 349 349 349 348 348 347
324 324 321 321 321 315 314 313 301 300 300 299 303 303 310 306 307 309 311 311 314 316 316 317 319 316 319 318 315 314 311 322 327 332 337 348 344 346 355 355 354 354 355 355 355 353 354 355 357 357 356 356 355 355 355 355 355 355 355 354 354 355 354 353 353 353 352 352 351 351 350 350 349 348 346 346 346 345 343 343 342 341 342 341 345 347 347 346 346 346 347 347 347 347 348 347 348
329 324 318 318 311 316 307 307 304 301 298 300 306 308 308 307 308 311 312 314 315 317 316 315 317 321 318 317 318 319 316 318 329 335 337 342 341 351 354 356 355 355 356 357 355 352 353 356 357 356 356 355 355 355 355 354 355 355 354 354 354 353 353 353 352 352 352 352 351 351 350 349 348 348 346 345 345 344 342 341 340 340 341 341 341 345 347 346 346 346 347 347 347 347 346 346 347
326 322 320 315 311 308 310 307 304 303 298 300 300 306 307 310 309 311 313 315 315 317 316 318 317 320 320 317 318 314 316 323 324 330 336 344 355 352 355 358 353 349 354 355 354 353 354 356 357 357 356 355 355 355 355 355 355 355 354 354 353 352 352 352 351 352 351 351 351 351 350 349 348 347 346 345 344 344 344 343 343 343 341 341 341 341 346 346 346 346 346 347 348 347 346 346 346
321 317 319 316 308 315 309 302 303 301 304 307 303 305 308 310 309 312 312 315 315 316 316 317 314 317 316 319 320 319 326 319 329 332 340 348 353 356 357 356 353 349 352 353 353 354 355 357 357 356 356 355 355 355 355 355 355 355 354 354 353 353 352 352 352 352 352 352 351 351 350 349 348 347 346 345 345 345 345 345 344 344 344 342 341 341 341 345 345 345 346 346 346 346 346 346 346
316 316 315 314 312 312 303 302 301 303 304 308 304 306 308 310 311 311 312 312 313 315 317 315 318 317 314 320 324 324 328 336 329 333 348 350 354 357 357 352 351 350 352 352 349 353 357 357 356 356 355 355 355 355 355 356 356 355 355 354 354 353 352 351 351 351 352 352 351 350 349 349 348 347 346 345 345 345 345 344 345 345 345 346 344 341 340 342 346 345 345 345 346 346 346 346 346
320 311 312 308 306 308 303 302 302 305 304 308 308 307 309 310 311 310 311 309 309 310 314 317 318 314 317 321 315 324 329 342 338 346 354 353 354 358 355 352 350 351 353 353 352 354 359 357 356 355 355 355 355 355 355 356 356 355 355 354 354 353 352 351 350 351 351 351 350 350 349 349 348 348 346 345 346 345 345 344 346 345 346 346 345 342 339 341 346 345 345 346 346 346 346 346 346
316 313 315 307 303 306 303 302 302 307 306 309 309 311 316 311 311 310 309 311 312 312 313 313 314 310 317 316 320 333 338 348 350 354 352 352 354 355 353 351 349 350 352 348 353 358 357 357 356 355 355 355 355 355 356 355 355 355 354 354 353 352 352 351 351 351 351 350 350 350 350 350 349 348 346 346 346 345 345 345 346 345 345 344 343 342 341 341 344 345 345 346 346 345 345 345 345
313 312 306 307 306 300 301 302 302 304 305 308 308 309 309 311 310 312 309 309 310 311 313 315 314 311 314 313 319 330 339 351 351 351 353 356 357 357 356 353 355 353 354 350 353 357 355 358 356 355 356 355 354 355 355 355 355 354 354 353 353 352 351 351 351 351 351 350 350 350 349 349 349 348 346 346 345 345 345 346 346 345 346 345 342 342 344 345 345 345 345 345 344 344 344 344 344
307 313 313 304 302 300 299 301 303 305 306 309 308 311 310 311 310 309 310 309 313 311 312 315 312 312 314 321 330 348 349 351 348 347 353 355 356 358 353 357 355 355 351 356 356 356 355 355 357 355 355 355 355 355 355 356 355 355 354 354 353 352 352 351 352 351 350 349 351 350 349 349 349 348 347 346 345 346 346 345 345 346 347 346 344 345 346 345 345 345 345 345 344 345 345 344 344
306 307 308 301 301 300 301 301 303 304 307 307 306 309 311 311 311 308 309 307 310 311 311 315 312 314 312 322 335 343 348 349 351 351 354 356 352 356 355 354 356 356 356 357 356 354 355 353 354 357 355 354 355 355 355 355 355 355 354 353 353 353 352 351 351 350 350 349 351 350 349 349 349 348 347 346 346 346 346 345 346 346 348 346 345 345 346 345 345 345 345 345 345 345 345 345 346
308 309 306 303 302 302 304 302 303 304 305 306 306 309 312 309 309 309 309 309 310 310 311 314 314 315 314 317 339 343 343 351 354 354 354 352 354 354 357 356 356 357 356 357 355 354 355 352 352 352 353 355 355 355 354 354 354 354 354 353 353 352 352 351 350 350 349 349 351 350 349 349 349 349 348 347 346 346 346 346 346 346 347 346 346 346 346 346 345 346 345 345 346 345 347 346 346
309 310 307 302 307 304 302 302 305 303 302 307 309 311 311 309 310 311 310 308 308 308 312 315 314 314 314 326 334 339 341 356 355 357 353 355 355 357 357 355 355 356 355 354 351 354 354 352 352 352 352 353 352 353 355 354 354 354 354 353 353 352 351 350 350 350 349 350 351 350 350 349 348 349 347 347 347 346 346 346 346 346 346 346 346 346 346 346 346 345 345 346 346 347 346 347 346
309 312 307 304 304 304 304 301 301 302 302 307 310 310 310 312 312 311 310 307 309 313 315 318 316 313 313 314 318 338 347 356 356 356 355 354 355 355 357 354 354 354 352 354 352 353 353 352 351 351 352 349 351 352 353 353 354 354 353 350 350 351 350 349 349 349 349 350 351 350 350 349 347 348 348 347 349 346 346 346 346 345 345 346 345 345 346 346 346 346 347 346 347 347 347 344 347
314 311 308 303 302 302 302 303 304 302 302 308 310 311 310 311 313 310 311 312 311 314 315 312 315 312 313 317 320 323 353 355 355 354 353 351 352 353 351 352 352 352 353 352 352 351 353 352 351 349 350 344 349 350 351 352 353 354 350 346 345 349 345 345 346 346 349 350 351 351 350 347 346 346 347 347 348 347 347 346 346 346 345 345 345 345 345 346 346 347 346 347 346 346 346 346 346
314 312 303 304 302 303 303 304 304 300 305 308 311 310 307 308 313 313 315 315 311 311 313 314 313 317 314 319 326 335 354 354 353 353 350 348 348 346 346 346 347 348 351 350 350 351 353 352 351 348 343 343 344 348 349 351 352 353 348 346 345 347 345 345 345 344 346 348 350 351 350 347 347 345 345 346 347 346 346 346 346 346 345 345 345 345 345 345 346 346 346 346 345 346 345 346 346
311 305 304 302 305 303 306 305 306 308 306 308 308 310 309 306 310 311 314 312 312 312 311 314 315 315 317 323 334 354 353 348 351 350 346 345 346 343 341 343 344 340 344 345 349 351 352 352 351 347 342 340 342 347 348 350 352 351 347 343 345 345 343 345 343 344 346 346 349 348 348 347 345 345 345 348 346 347 345 346 346 346 345 345 345 345 345 345 345 345 345 345 346 346 346 343 340
307 305 305 302 306 306 310 309 310 308 307 308 309 310 309 308 310 312 308 309 310 309 311 312 314 315 319 325 349 350 349 348 350 348 345 343 343 341 341 342 342 343 342 344 346 351 350 351 351 346 342 342 344 345 347 348 349 349 345 345 346 345 344 344 343 343 342 344 346 347 348 347 346 345 345 346 346 346 345 346 346 346 346 346 345 345 345 344 344 344 344 345 344 345 343 339 336
310 306 303 304 309 309 310 311 309 311 310 308 309 310 309 310 310 313 309 308 309 308 308 311 311 322 336 342 348 349 346 349 349 347 344 343 341 343 342 343 342 343 344 344 344 349 348 347 350 349 344 344 345 345 346 348 349 348 346 344 345 345 343 342 343 343 343 344 345 346 346 348 347 344 346 346 344 348 344 346 346 346 345 346 346 344 344 344 344 343 344 344 344 342 337 334 334
310 307 304 306 309 307 310 311 311 311 311 309 309 310 309 311 311 311 309 307 308 309 312 311 313 322 338 343 346 347 346 347 345 347 344 342 343 345 344 345 343 344 345 346 346 347 348 349 349 349 348 346 347 347 347 347 349 347 346 342 345 346 343 342 341 341 342 344 345 348 345 348 346 346 345 344 344 342 344 342 343 343 343 342 345 342 342 341 344 341 341 343 340 335 333 332 333
311 307 309 309 310 308 311 311 312 311 311 310 310 308 308 312 311 310 310 306 306 309 312 313 313 316 332 340 343 346 344 344 346 343 343 342 343 345 347 347 349 348 347 344 344 346 349 351 351 348 348 348 350 349 348 348 349 347 344 343 340 340 344 343 343 342 345 345 345 347 348 348 345 345 344 346 343 340 340 340 343 342 342 341 342 341 341 340 341 339 337 337 336 333 331 332 333
305 309 310 310 311 308 311 312 311 311 310 309 308 310 311 310 309 311 310 309 311 314 314 314 314 315 337 340 343 339 342 344 344 343 343 342 344 347 347 346 346 345 345 344 347 347 350 351 352 348 345 347 349 347 348 348 348 348 346 342 341 342 342 341 340 341 346 346 346 348 347 346 342 345 343 341 342 343 340 340 341 343 345 345 342 339 337 338 340 340 338 335 333 332 330 331 333
309 306 310 310 312 310 312 311 312 311 310 309 311 312 309 309 306 311 310 312 314 315 315 315 315 316 318 322 343 338 340 342 343 345 346 345 346 348 348 348 347 348 346 346 346 348 349 350 352 349 345 346 347 345 345 346 348 348 345 342 344 343 339 338 340 343 347 348 348 348 347 346 342 343 342 341 341 342 340 338 341 341 343 345 344 338 336 337 338 338 338 336 331 329 330 331 332
307 307 310 311 311 311 312 312 311 311 311 312 312 309 309 310 309 311 310 312 314 315 316 316 315 316 317 333 341 339 335 342 342 346 349 346 350 352 352 350 350 348 346 347 346 348 349 351 352 349 343 345 346 345 343 345 347 348 347 345 344 345 343 343 345 347 347 347 347 345 344 343 341 340 342 339 339 339 340 341 343 340 341 342 340 338 335 335 336 336 335 334 331 328 330 332 331
309 309 310 310 310 311 311 311 311 311 311 312 309 308 310 311 312 309 311 313 315 316 316 315 315 315 315 320 336 338 333 340 344 347 348 349 351 352 351 350 350 348 349 348 348 348 349 351 351 348 343 343 344 345 345 345 347 347 346 346 346 346 346 347 348 346 346 346 345 344 344 344 345 341 341 342 338 339 341 341 342 342 342 342 340 337 336 335 335 334 333 333 332 331 331 333 334
311 310 310 309 310 310 311 310 311 311 311 311 308 308 309 312 311 306 315 315 316 315 314 316 316 318 321 322 334 333 331 337 346 353 351 350 350 351 351 351 350 350 351 349 349 348 350 351 350 349 342 343 345 345 345 345 346 347 346 346 346 345 346 347 346 345 345 345 345 346 344 345 344 344 339 339 339 341 341 341 342 344 344 341 340 338 337 335 338 335 334 335 334 332 331 332 333
310 310 309 309 310 310 311 311 310 311 309 312 311 308 310 311 310 308 311 315 316 315 315 314 315 316 316 319 322 328 333 337 330 345 349 347 344 348 351 349 350 351 349 350 349 350 350 350 350 351 346 345 344 344 344 343 344 345 345 345 345 345 346 346 345 344 345 344 345 346 346 345 345 344 339 338 339 340 341 340 342 343 342 343 342 340 338 334 336 333 334 336 336 335 332 332 331
309 309 304 306 308 307 310 309 311 311 309 312 312 308 306 308 306 311 314 315 315 315 314 314 314 315 316 319 321 323 327 329 331 334 349 348 349 353 352 354 352 350 349 353 351 352 350 350 350 351 349 344 345 343 342 342 346 344 343 342 344 345 346 346 344 344 345 346 346 346 346 345 345 344 340 340 340 342 342 342 341 342 343 344 342 340 338 337 338 335 336 334 333 333 333 330 330
310 308 306 305 305 305 310 312 311 310 310 312 311 298 303 307 311 313 315 315 315 314 314 314 314 315 315 319 318 321 327 331 337 340 346 351 351 352 353 356 355 352 349 351 353 352 351 351 351 351 350 346 344 344 342 342 344 343 342 342 343 344 345 344 344 344 346 347 346 346 345 345 344 345 344 343 344 344 343 342 341 342 343 343 343 340 337 335 334 333 331 331 333 331 333 332 336
304 307 307 302 300 301 310 310 310 308 312 311 311 300 303 307 310 313 315 316 314 313 313 314 315 315 315 316 316 318 328 337 338 341 345 348 349 354 353 356 355 355 351 351 351 352 351 350 350 350 351 350 346 343 342 340 341 340 340 339 341 341 340 342 343 343 344 344 345 345 345 344 342 340 343 344 343 343 343 342 342 342 343 342 341 341 338 336 337 335 332 328 332 339 333 332 331
307 303 301 306 303 305 310 312 311 306 311 313 310 301 303 307 310 313 314 315 314 312 313 315 315 314 315 316 317 316 320 321 332 335 343 344 343 339 342 349 354 354 353 353 352 353 351 350 350 349 350 350 349 344 342 340 339 339 339 340 339 339 340 341 341 342 343 344 344 344 344 344 343 342 343 343 343 342 341 341 341 343 344 345 344 342 340 336 335 335 335 340 339 330 331 328 334
307 304 303 303 305 305 306 310 312 313 310 311 309 302 306 307 312 314 315 314 313 312 313 315 315 315 315 315 317 319 320 323 326 333 340 342 341 338 338 343 351 354 353 354 352 352 351 350 349 349 349 349 349 348 342 340 336 337 337 337 338 337 339 339 340 341 341 342 344 343 344 344 344 343 342 343 343 341 341 340 342 343 345 345 344 341 339 338 336 332 340 341 337 333 325 324 327
304 306 302 304 302 303 302 308 311 311 309 307 310 306 306 308 311 313 314 315 313 312 313 314 315 316 318 321 317 319 322 322 324 329 336 339 339 338 338 343 353 355 354 355 353 352 350 349 348 350 350 350 350 349 345 337 335 335 336 337 338 336 338 339 341 340 339 341 343 343 345 345 344 342 342 343 343 341 341 340 342 344 343 343 342 341 339 340 337 337 338 337 332 330 326 323 332
301 302 301 302 304 304 303 303 309 310 310 307 307 307 307 309 311 313 314 315 314 312 314 314 314 315 317 316 316 320 320 324 325 333 326 331 340 342 341 346 351 354 352 354 354 353 351 349 348 350 349 349 349 349 349 342 336 335 337 336 337 338 339 341 343 341 340 341 342 344 344 344 344 343 343 343 342 340 340 340 340 342 341 341 340 340 338 339 338 338 341 344 346 342 338 341 341
304 303 302 302 301 302 303 307 310 310 307 306 307 305 306 308 309 311 312 314 313 313 315 314 314 316 317 318 318 318 318 320 322 327 331 335 339 343 346 349 351 354 352 355 353 352 350 350 348 349 349 349 350 349 348 346 340 335 334 336 335 338 340 341 342 341 342 341 342 344 344 344 344 343 343 343 340 338 338 338 339 340 340 340 338 337 337 338 337 338 338 339 340 341 339 343 342
306 305 304 303 303 304 308 308 311 311 308 306 307 307 307 308 309 310 312 313 313 313 313 314 314 314 316 318 317 322 325 324 328 328 330 336 341 339 339 340 339 344 350 353 351 350 349 346 346 345 348 348 347 345 345 344 342 341 340 337 335 338 340 342 342 343 343 343 343 343 344 344 344 343 342 339 337 338 337 337 337 337 340 340 340 338 339 340 339 340 340 339 338 338 338 343 343
306 305 304 303 304 302 308 308 311 312 307 305 308 306 306 308 310 311 312 312 311 311 312 314 314 315 318 318 319 319 321 324 325 332 329 333 336 339 337 338 337 334 340 349 349 349 349 349 347 347 347 347 347 346 345 345 344 343 342 341 341 341 340 341 341 342 343 344 344 343 343 343 343 343 342 339 338 337 335 335 335 334 337 340 341 341 342 341 341 338 338 337 339 338 336 339 343
307 304 304 303 303 307 308 309 311 310 308 304 306 304 305 307 309 311 312 312 313 314 314 313 314 318 315 317 318 320 321 324 327 326 326 329 333 337 340 340 339 339 340 347 351 349 349 348 347 347 347 346 347 347 347 344 346 347 344 344 343 342 344 344 344 344 344 344 344 343 342 342 344 342 340 339 339 338 338 337 336 337 338 341 341 340 340 339 340 337 337 336 337 339 338 342 338
305 304 303 301 304 303 301 306 308 309 306 304 306 304 306 309 311 311 313 313 314 315 315 315 315 315 316 318 319 321 322 323 325 328 329 330 336 342 340 337 339 343 344 343 348 348 347 347 347 348 347 346 346 347 347 347 348 349 349 348 347 345 343 345 346 346 344 344 342 343 343 343 344 343 341 342 342 340 339 336 335 336 339 342 340 339 339 340 340 337 336 338 339 334 335 334 341
306 306 304 303 304 304 303 303 307 308 308 308 306 304 304 307 307 309 312 314 313 314 314 316 317 316 319 320 319 322 323 328 325 326 330 335 337 339 344 343 340 337 340 337 337 345 347 347 348 348 347 346 346 347 348 348 348 347 348 349 348 347 347 343 342 341 342 342 342 343 343 343 343 343 344 343 342 342 340 338 336 337 339 341 341 340 339 339 340 339 339 339 337 333 330 332 334
304 307 307 306 306 304 305 305 304 302 301 306 305 296 298 305 307 307 310 311 312 314 314 313 315 320 319 317 320 322 323 326 328 328 333 335 337 340 342 339 336 338 338 340 337 340 345 348 348 348 347 347 347 348 348 348 346 344 344 342 340 341 340 339 338 338 338 339 339 342 344 344 344 342 342 342 342 343 341 340 339 339 341 342 341 340 341 341 339 339 340 338 336 336 332 331 330
301 303 308 307 305 305 304 304 303 297 295 303 307 297 294 305 305 308 309 310 310 312 313 313 314 315 316 316 317 320 322 323 327 329 334 336 337 336 339 340 340 338 341 346 343 339 340 347 348 348 347 346 347 347 347 347 346 343 343 342 342 341 339 340 342 343 341 341 342 342 343 343 342 342 342 341 341 341 342 341 341 342 342 341 343 341 339 339 339 339 340 337 336 337 335 330 330
300 307 307 306 305 304 303 303 302 300 305 305 306 304 298 298 303 308 310 309 309 310 311 313 313 316 316 316 317 319 320 322 324 326 333 336 337 336 336 338 339 339 342 345 348 343 341 340 348 348 347 346 346 346 347 347 345 344 343 342 342 341 341 341 342 343 344 343 342 342 342 343 342 342 342 341 342 340 339 340 341 341 341 341 341 340 340 340 339 340 340 339 337 335 334 332 330
302 306 307 305 305 304 305 303 302 302 301 298 303 307 299 299 304 310 309 305 308 310 311 313 313 316 316 317 317 318 319 321 323 327 333 335 336 336 338 337 339 340 342 344 344 342 340 338 339 347 347 347 346 347 346 345 345 344 343 342 341 342 343 343 343 343 342 343 341 342 341 341 342 341 342 342 341 339 340 340 340 340 340 342 339 340 340 340 339 338 337 336 334 335 335 335 332
306 308 308 307 307 306 306 303 302 302 300 296 300 304 297 298 304 305 307 306 306 308 311 313 316 315 316 316 317 319 319 322 324 330 330 331 333 333 337 339 339 340 345 344 346 348 339 336 336 342 346 346 346 346 346 344 344 345 343 343 341 341 342 342 343 342 342 343 341 341 341 341 341 341 341 342 341 341 340 341 341 341 341 340 339 339 339 339 339 338 337 336 336 335 334 334 332
310 308 306 305 305 305 305 304 303 300 293 298 302 304 301 294 301 304 305 306 307 308 311 315 316 316 317 318 317 318 318 321 322 326 327 328 331 334 337 338 340 341 343 344 345 347 345 339 340 339 344 346 346 345 345 344 344 344 343 343 342 341 341 341 341 341 341 342 340 340 340 340 341 340 341 341 341 341 341 341 340 340 340 341 340 339 338 339 339 338 337 336 335 334 333 333 333
307 303 302 301 301 303 302 302 303 294 292 299 303 303 303 293 300 304 309 312 313 313 312 313 315 314 314 316 316 317 319 320 322 324 325 327 329 329 332 335 338 340 341 341 343 345 346 346 342 338 342 344 345 345 345 344 344 343 343 343 342 342 342 340 341 340 340 339 340 340 341 341 340 341 341 340 340 341 341 339 338 338 339 340 340 340 340 340 340 338 338 336 336 339 339 339 339
304 302 302 296 294 296 290 296 290 292 292 300 303 303 297 298 301 306 308 312 315 315 314 313 313 313 315 314 315 316 318 319 321 324 326 327 327 326 328 329 332 337 338 341 340 341 343 344 343 340 341 341 340 340 344 344 343 342 342 342 343 344 343 342 341 341 340 339 339 340 340 339 340 339 339 339 340 341 341 340 340 340 340 340 340 340 341 340 340 338 338 338 337 337 337 337 336
301 299 298 294 290 289 286 291 294 295 299 303 300 302 295 300 302 307 310 313 315 315 315 314 314 315 315 314 315 314 316 316 317 321 324 325 326 326 328 327 329 331 334 338 341 341 341 340 339 332 331 333 335 335 334 337 341 342 343 342 343 343 343 342 342 341 342 340 341 340 340 340 339 339 339 340 341 341 341 341 341 341 339 340 340 339 339 340 338 337 339 339 338 339 339 337 336
300 303 300 297 296 291 286 290 287 289 292 297 301 296 293 294 299 308 313 314 314 315 314 316 315 315 316 315 314 314 314 315 315 315 318 321 327 328 328 329 330 331 332 335 338 339 340 340 334 330 329 331 332 333 335 336 335 336 339 341 342 343 343 343 342 343 344 342 342 342 341 341 340 340 339 341 342 341 341 341 341 340 340 339 338 339 339 339 339 338 339 339 339 340 340 339 337
302 303 303 298 296 300 291 294 293 292 292 291 295 293 299 299 307 312 314 313 314 314 314 316 314 314 314 314 313 314 314 314 315 315 316 317 320 326 328 329 330 331 333 334 335 337 337 339 335 331 329 329 330 331 332 332 333 334 334 332 337 342 343 343 343 343 345 347 344 342 343 343 342 342 341 341 341 341 340 340 340 341 339 339 339 339 340 340 339 338 338 338 338 341 340 339 337
299 300 295 298 304 300 294 295 298 296 292 289 294 297 300 305 306 309 312 312 311 312 312 312 310 311 310 309 310 311 312 312 313 312 313 315 317 319 319 327 329 331 331 332 332 334 335 337 335 331 330 330 331 332 332 332 332 332 333 334 334 334 338 342 342 342 343 344 345 345 344 344 344 343 342 342 341 340 340 340 339 339 337 337 339 339 338 338 338 339 338 338 338 340 340 339 339
301 295 299 305 306 303 296 288 291 290 287 289 296 293 295 296 292 307 307 307 308 309 308 306 308 308 307 306 308 309 310 310 311 311 312 313 314 317 319 319 319 324 327 329 331 333 334 338 336 333 333 332 332 331 331 331 330 330 330 331 333 334 333 337 342 342 343 343 343 345 345 344 343 344 343 342 342 340 340 341 339 338 338 338 338 338 337 337 338 337 337 338 339 340 339 337 338
302 300 307 297 290 292 298 293 285 286 286 287 293 295 295 296 297 303 303 303 305 305 306 306 304 305 305 305 305 307 308 308 308 309 309 311 313 314 316 317 319 320 320 323 328 331 331 334 336 334 333 332 330 330 331 333 333 332 332 332 333 333 333 333 338 340 343 342 341 343 343 343 344 344 343 342 341 340 339 339 339 337 338 339 338 337 337 336 337 335 336 337 339 339 336 335 336
307 307 302 305 299 296 293 295 294 293 286 287 289 293 291 299 300 303 303 303 303 303 303 303 304 304 304 304 304 304 305 307 306 306 307 310 311 312 313 315 314 314 316 321 322 324 328 329 331 332 333 333 333 332 333 332 333 332 331 333 334 334 333 333 332 332 334 338 340 341 341 343 343 343 342 342 341 340 339 339 338 338 339 338 337 337 336 335 335 334 335 336 338 338 336 334 334
299 299 297 299 299 302 299 299 295 292 288 288 287 286 293 301 303 302 301 303 303 302 302 302 303 303 303 303 304 304 304 305 306 307 307 308 310 312 311 311 311 313 316 316 317 319 321 328 327 329 328 330 331 332 332 332 331 331 332 331 331 332 333 333 333 334 334 335 337 337 340 343 343 342 342 342 341 340 338 339 338 338 337 337 336 337 336 333 333 334 336 336 337 336 334 333 334
299 298 296 298 296 294 291 289 299 296 293 288 287 286 294 302 304 302 302 303 302 303 302 301 302 302 303 303 304 304 304 304 305 306 307 307 308 309 309 308 310 311 311 312 315 316 317 319 325 326 326 326 329 329 329 329 328 328 329 329 330 331 330 332 332 333 331 330 333 334 336 341 341 341 341 339 340 340 339 339 338 337 337 336 337 336 336 334 334 334 335 337 336 335 334 333 335
Wind_Speed
10 10 9 9 9 9 8 1 2 2 2 5 6 4 5 16 7 5 8 5 1 3 3 5 5 2 6 4 10 14 5 7 4 3 1 3 2 8 7 8 6 8 9 10 10 10 10 12 13 13 13 14 14 13 13 13 12 12 13 13 13 13 13 13 13 14 14 13 13 13 13 12 12 11 11 10 10 9 9 10 10 8 8 14 11 9 10 10 11 12 12 13 14 14 14 13 13
9 11 11 11 10 8 6 8 4 1 5 6 8 8 10 5 7 14 13 5 7 4 4 1 5 7 2 4 9 8 9 8 5 5 5 5 8 6 6 9 10 9 8 10 10 10 10 11 12 13 14 14 13 13 13 13 13 12 12 13 13 13 13 13 13 13 13 13 13 13 13 12 12 12 11 11 10 10 10 9 9 8 8 8 14 11 9 10 11 12 12 12 12 13 13 12 12
10 10 11 10 12 9 5 4 7 6 5 6 7 13 8 5 1 8 8 7 9 4 3 6 4 6 5 10 10 4 5 6 11 8 5 8 8 6 7 7 7 8 10 10 11 10 10 11 12 13 14 15 14 14 14 14 14 13 13 13 14 13 13 14 13 13 13 13 13 13 13 12 12 12 11 10 10 11 10 9 8 8 7 5 11 12 10 9 10 12 13 12 12 11 12 12 11
10 9 10 9 8 4 8 2 7 6 7 7 3 10 8 3 10 9 8 3 8 3 5 8 11 13 15 8 1 15 6 7 9 8 5 8 4 9 9 8 8 7 9 8 10 10 9 12 13 14 15 16 15 15 14 14 14 14 14 14 13 14 13 13 13 13 13 13 13 13 13 13 12 11 11 11 11 11 10 10 9 9 8 7 4 11 11 9 10 12 11 12 12 11 11 11 10
10 10 11 10 8 5 4 4 7 4 6 6 3 6 9 8 8 5 8 6 9 5 3 12 7 8 11 10 5 2 6 8 6 4 5 5 10 11 8 7 8 9 8 10 9 9 10 18 13 13 14 16 15 15 15 14 14 14 14 14 13 13 13 12 13 13 12 12 12 12 13 12 12 12 11 11 11 11 11 11 10 10 10 8 6 8 12 10 10 10 11 12 12 10 10 10 9
12 11 11 10 8 6 6 5 5 5 7 8 4 6 7 7 8 3 8 7 8 6 5 9 8 5 7 2 2 2 2 2 1 6 6 7 11 11 9 9 8 7 9 9 10 9 10 18 16 15 15 15 15 15 14 14 14 14 14 13 13 13 13 13 13 12 12 12 12 12 12 12 12 12 13 12 12 11 11 10 10 11 10 10 9 8 7 11 10 11 11 11 11 11 10 8 9
10 10 10 12 9 6 7 1 4 5 5 5 8 9 10 10 5 4 8 9 7 3 4 9 11 12 3 6 3 2 3 2 1 3 5 11 12 11 12 12 10 9 7 9 9 10 14 17 17 16 16 16 16 15 14 14 14 14 13 13 13 13 12 12 12 11 11 11 12 12 12 12 13 13 13 13 12 11 11 10 10 9 10 9 9 9 9 10 11 10 10 11 10 10 9 8 7
11 8 7 9 4 6 5 2 3 3 3 4 5 10 8 10 7 7 6 5 7 3 5 5 13 14 5 5 1 3 4 2 1 8 11 12 12 11 11 11 10 10 8 6 5 8 16 17 16 15 15 16 16 15 14 13 13 13 13 12 12 12 12 11 11 10 10 10 11 11 12 12 12 12 12 12 11 11 10 10 10 9 10 9 9 9 9 10 13 10 10 10 9 9 8 8 7
10 9 6 8 8 4 4 2 3 5 4 4 11 7 7 7 9 4 9 6 2 6 4 9 7 10 3 6 6 2 2 3 4 13 11 11 12 12 8 10 12 9 9 6 7 9 11 17 16 15 14 14 15 15 14 13 13 13 12 12 12 11 11 10 10 9 9 10 11 11 11 10 10 11 11 11 11 11 10 10 9 10 9 9 10 9 9 8 10 10 9 9 9 8 8 7 6
9 7 8 4 5 9 2 3 4 6 9 10 7 8 10 8 10 3 7 7 8 3 7 4 5 4 9 6 7 5 3 5 8 8 8 10 12 10 9 11 10 9 6 8 8 10 9 15 16 16 14 13 13 13 13 13 12 12 11 11 10 10 10 9 9 9 9 10 11 11 10 10 10 10 12 11 11 11 10 10 9 9 8 9 9 9 9 10 10 10 10 9 9 8 7 6 5
8 6 6 8 8 5 6 4 7 4 3 10 14 12 6 8 7 13 11 10 9 3 8 3 9 6 10 9 3 3 6 8 9 10 10 10 10 9 8 7 10 10 8 9 10 12 10 12 15 15 14 12 11 11 10 10 11 11 10 10 10 10 9 8 8 8 8 9 12 11 11 11 10 10 11 11 10 10 10 11 10 9 8 9 9 10 10 10 10 9 9 8 7 7 5 4 4
8 9 7 6 9 6 5 7 6 5 5 3 9 8 6 13 10 8 11 9 3 3 6 8 6 3 9 8 5 6 8 8 8 11 9 9 10 8 8 7 11 9 9 9 9 9 12 12 12 14 15 13 11 11 9 10 10 11 11 11 11 9 9 8 8 8 8 10 10 11 11 11 10 10 10 11 11 11 11 10 10 9 9 11 10 10 10 10 9 9 8 7 6 5 4 4 3
8 7 9 6 7 7 6 6 9 2 7 8 6 6 7 13 10 7 10 10 14 10 7 9 7 10 8 3 6 8 10 8 9 11 12 10 10 8 7 7 9 6 9 8 11 10 12 12 11 13 12 15 13 12 10 11 12 13 13 12 11 10 9 9 9 10 9 11 11 11 11 11 10 10 9 11 12 11 11 11 10 10 10 10 11 11 11 10 9 8 7 7 5 4 5 4 4
8 6 6 7 7 11 7 8 6 5 8 9 11 12 10 7 11 8 11 5 8 11 4 7 5 8 10 7 5 7 7 9 10 11 10 9 8 6 7 9 7 6 7 8 10 11 11 12 11 11 12 11 10 11 14 15 15 13 13 11 11 10 10 11 12 13 12 13 13 12 12 12 12 10 10 8 9 11 11 10 10 10 10 11 11 11 11 10 10 8 8 7 6 6 6 5 5
9 6 5 7 9 7 7 7 10 7 6 11 12 9 8 8 10 6 10 11 7 4 4 5 8 6 5 4 4 6 9 11 11 10 8 9 8 8 7 8 8 6 6 8 10 10 10 11 12 11 12 9 10 9 8 11 13 13 12 9 8 10 8 8 9 10 11 13 13 12 13 12 12 11 10 9 6 11 11 11 10 10 10 10 10 11 11 10 10 9 8 7 7 6 6 6 6
7 6 6 8 8 9 8 9 9 7 9 10 12 9 10 11 13 9 6 5 4 13 15 5 7 5 5 16 12 11 14 13 11 10 10 11 9 7 8 7 7 7 6 5 8 9 10 11 10 11 7 9 11 11 8 9 13 14 12 9 5 5 5 3 2 4 8 12 12 13 13 10 10 9 12 8 8 11 12 11 11 10 9 10 9 10 10 10 10 9 8 7 6 6 6 6 6
7 6 8 7 7 5 9 8 9 8 10 9 11 10 10 9 11 8 9 8 8 11 13 11 8 3 7 10 11 15 16 13 11 11 12 10 9 8 7 7 7 6 5 7 6 9 10 11 11 9 6 8 10 7 8 9 11 15 13 12 11 9 7 8 8 8 9 10 11 11 11 8 6 5 8 6 10 8 11 12 11 11 10 9 9 9 9 9 9 9 8 8 7 6 6 7 7
7 7 6 8 5 5 9 10 7 6 9 10 10 10 12 10 11 10 9 11 7 8 7 14 14 4 8 12 14 18 17 16 14 14 12 11 9 8 9 9 9 9 9 8 7 8 11 10 10 12 11 11 8 3 5 6 7 12 10 8 8 8 7 9 6 5 7 5 11 8 6 7 6 6 6 10 7 8 10 13 12 11 10 10 9 9 9 9 9 9 9 8 8 7 8 4 5
6 7 8 7 8 11 9 9 7 8 11 12 11 11 11 11 9 9 11 9 9 9 9 12 7 5 14 13 19 16 17 15 15 13 15 14 11 12 9 9 9 9 10 9 8 7 9 10 10 14 13 11 10 7 6 6 9 8 9 9 7 10 10 9 7 7 6 6 8 7 5 5 6 4 5 7 8 11 10 13 12 11 11 10 10 9 8 9 9 9 10 9 8 8 5 4 5
8 8 7 8 11 13 10 9 11 10 13 12 12 11 11 11 12 8 10 10 8 11 9 4 8 10 18 14 15 14 15 16 14 14 14 14 12 11 10 10 10 10 10 9 9 8 9 9 11 10 13 11 9 7 6 6 7 7 7 6 6 7 8 7 7 7 6 6 6 5 5 3 5 4 7 9 9 3 5 9 11 11 11 11 11 8 8 8 9 10 9 9 6 4 4 5 6
7 6 7 10 13 10 8 10 9 12 11 12 12 11 13 12 9 9 9 11 10 10 9 7 10 19 12 16 14 14 13 15 15 14 13 13 11 9 9 9 10 9 8 8 8 9 9 9 10 11 11 9 10 8 8 8 8 7 7 6 6 6 7 5 4 6 6 7 5 4 5 3 4 4 5 4 2 2 2 4 5 5 5 6 10 6 5 6 6 6 5 6 4 5 6 6 7
6 7 10 12 14 14 12 12 12 12 12 13 13 13 11 11 10 9 9 9 7 9 11 10 9 6 15 14 14 12 14 15 15 14 14 12 12 10 9 8 8 8 9 9 9 10 10 8 8 11 9 11 10 8 8 8 9 8 8 8 5 5 5 5 5 5 7 7 5 4 3 3 2 3 3 3 3 2 3 4 4 4 4 6 7 6 6 6 6 6 6 6 5 5 6 7 8
9 8 10 12 12 12 11 10 12 13 13 14 12 11 10 10 9 10 11 9 9 8 7 7 6 3 18 13 12 12 15 15 14 15 14 12 12 10 10 9 9 9 9 9 8 9 10 9 8 12 10 9 9 7 6 6 7 7 8 7 8 7 4 4 6 6 6 5 5 4 3 2 2 1 4 4 3 3 4 5 4 3 2 3 5 7 7 7 6 6 6 6 6 7 8 9 9
10 11 11 13 16 15 9 13 14 12 15 15 11 10 11 9 12 7 9 11 9 7 7 6 7 7 6 17 14 14 16 14 15 14 12 12 11 12 10 10 9 8 8 9 9 9 10 11 9 12 10 8 8 9 7 6 5 6 8 9 7 7 5 6 6 7 5 4 5 4 3 3 4 3 3 5 6 5 7 6 4 3 5 6 3 7 8 7 7 7 7 7 8 8 9 10 10
11 12 13 10 12 13 13 13 13 14 16 14 11 11 11 9 10 11 11 8 9 4 3 5 6 7 7 13 14 13 12 11 12 11 9 8 8 9 8 7 8 8 9 9 8 10 12 11 10 12 11 9 8 10 8 6 6 6 8 8 7 7 6 6 7 6 4 4 5 6 5 4 5 5 4 4 3 3 3 2 3 5 6 5 5 6 9 7 8 7 7 7 6 7 9 8 4
10 14 17 15 15 16 15 15 15 17 11 10 11 13 10 10 12 12 13 9 5 7 7 8 10 11 11 7 16 13 8 8 8 9 9 6 7 10 10 9 8 9 8 8 7 8 11 11 12 13 12 9 8 9 8 8 7 7 7 8 7 10 7 6 5 5 5 5 6 7 7 6 6 7 5 5 6 6 5 5 6 7 6 6 5 8 9 8 6 6 7 7 8 8 7 4 3
12 15 15 17 18 17 16 17 16 15 12 10 13 11 12 11 9 9 3 6 4 4 11 12 9 7 8 5 3 6 6 5 5 5 6 5 5 9 9 9 8 8 7 8 7 7 10 12 11 14 11 9 7 9 8 8 7 7 7 6 6 7 7 6 6 7 6 7 6 8 8 7 6 6 7 7 6 6 5 5 5 5 5 6 5 7 10 7 4 4 5 4 4 4 5 4 3
13 14 17 17 18 17 17 18 16 12 9 6 11 9 11 14 11 9 11 2 4 8 8 8 9 8 7 5 11 7 7 7 10 8 10 9 5 7 8 9 8 8 8 8 7 7 9 12 12 13 14 10 7 8 9 8 7 7 7 6 7 8 8 8 7 6 6 6 6 8 8 8 6 5 7 8 8 6 6 5 4 5 6 5 5 7 9 6 3 5 7 4 6 4 5 4 5
14 15 17 19 20 18 17 15 14 2 6 7 1 9 14 15 16 14 14 2 9 12 8 8 12 10 7 5 4 10 12 9 5 5 7 5 3 4 7 7 7 7 6 6 7 8 10 11 11 11 14 11 8 7 7 7 7 7 7 7 6 6 6 5 6 5 4 5 6 6 7 6 5 5 6 6 7 6 5 5 5 5 5 5 5 8 9 6 3 4 4 6 6 5 4 5 5
17 16 13 17 17 16 10 15 12 4 2 4 4 9 9 11 3 3 3 6 7 8 9 13 8 7 7 3 2 2 11 9 5 7 8 5 3 4 6 6 7 6 6 6 7 8 8 8 8 8 12 15 11 6 7 8 7 6 5 6 6 5 4 4 4 3 4 4 4 7 7 6 6 5 6 6 4 4 4 4 5 5 5 4 4 4 5 8 5 5 5 5 5 5 3 4 3
13 13 12 12 13 11 3 5 11 6 4 2 3 9 9 12 11 3 7 7 10 11 5 3 10 11 11 6 7 7 14 10 10 6 4 5 4 2 4 7 7 7 5 6 9 8 10 9 8 8 9 14 14 8 7 7 7 6 7 7 5 5 4 5 6 6 5 5 5 5 6 6 6 5 4 4 4 4 4 4 4 4 4 3 3 4 7 9 5 4 4 7 4 1 3 5 3
12 11 9 8 6 5 10 9 6 3 5 2 7 9 8 12 13 10 8 3 7 12 12 5 8 8 9 8 6 4 12 6 11 9 6 5 5 5 1 5 8 8 8 6 7 7 9 9 9 8 10 10 14 13 8 7 6 6 9 7 7 7 5 5 6 5 5 6 6 7 8 8 9 8 7 7 6 5 5 5 5 3 3 3 4 4 6 7 4 4 5 2 1 3 3 6 3
10 8 9 10 9 6 9 6 10 9 6 8 11 7 9 9 9 14 16 12 9 12 11 9 7 8 11 4 5 14 11 13 8 6 7 6 6 6 5 7 11 10 9 6 8 7 9 9 9 9 11 11 11 15 14 9 6 7 7 5 6 8 7 6 6 5 5 5 6 6 8 8 8 10 9 9 7 6 6 5 4 5 3 4 3 4 5 6 4 5 3 2 3 3 6 8 5
6 10 10 12 12 11 9 14 14 9 7 10 8 5 10 13 14 12 14 17 7 7 12 7 5 6 6 3 4 10 10 5 7 7 9 7 5 7 7 6 6 9 10 6 8 8 8 8 8 8 9 9 10 11 16 14 9 9 6 5 4 4 6 7 7 6 6 5 5 5 6 6 7 8 8 8 7 6 6 6 5 5 5 4 4 3 4 4 5 4 3 4 5 5 5 6 3
9 10 11 11 13 13 12 11 11 15 13 12 14 11 10 12 14 14 11 12 11 13 12 8 9 8 9 3 2 13 7 5 3 3 7 0 5 6 4 5 7 8 8 7 8 7 7 7 7 7 9 9 9 10 12 17 14 9 7 7 6 6 6 7 6 7 6 6 5 5 5 6 6 7 8 8 7 7 7 6 5 6 5 4 3 3 4 3 3 2 4 4 3 2 3 2 0
14 14 12 12 11 10 11 11 11 10 15 13 12 10 9 11 14 15 14 13 12 12 10 8 10 6 3 3 5 9 9 7 5 8 12 10 7 8 6 7 5 3 6 6 7 7 7 7 7 7 8 8 8 8 9 11 15 11 10 8 7 8 8 7 7 7 6 6 6 6 5 6 7 7 8 7 6 6 6 7 8 7 6 5 5 4 5 5 5 2 3 3 4 4 5 1 3
13 12 12 12 12 12 12 12 10 11 10 15 9 9 12 13 14 14 15 13 12 12 10 7 7 8 5 7 11 11 8 11 12 11 8 8 7 5 7 8 6 12 9 6 7 7 8 8 8 9 8 8 8 9 9 9 12 13 13 12 10 11 10 9 8 7 7 7 8 9 7 6 7 8 7 8 6 6 6 5 6 5 6 6 7 7 6 5 3 1 2 1 1 2 4 2 1
11 11 11 10 10 10 11 12 15 11 10 13 15 17 15 12 12 13 13 13 14 13 12 10 7 5 7 14 15 14 10 10 9 6 7 6 6 8 6 6 6 3 12 7 7 7 7 7 8 8 8 9 9 9 9 8 9 9 10 12 11 11 10 9 9 8 8 7 8 8 7 7 7 6 5 8 7 7 6 4 5 6 6 7 6 5 5 4 3 4 3 1 2 3 3 4 1
12 9 10 12 8 9 12 12 7 12 10 11 17 17 15 16 14 12 12 13 10 9 8 11 10 2 8 13 12 10 10 9 4 5 5 3 4 7 3 2 3 5 12 11 6 8 8 8 7 7 7 9 8 9 8 9 8 8 8 9 10 9 8 9 8 8 8 7 7 7 7 7 8 10 10 9 10 9 6 5 4 5 7 6 6 6 6 6 5 6 5 4 4 4 4 2 2
12 11 10 9 10 11 10 10 12 11 11 14 15 16 14 14 10 12 9 9 5 5 7 8 4 3 7 15 10 10 11 10 8 4 7 7 3 6 5 2 1 4 9 6 7 8 7 7 7 8 8 8 8 9 9 9 8 7 8 8 9 8 9 8 7 8 8 8 8 8 8 8 8 7 9 11 9 11 11 8 6 6 7 7 6 6 6 6 6 5 5 5 2 2 1 2 0
12 14 7 11 10 13 14 12 14 15 16 16 17 15 8 7 8 6 8 11 9 8 8 4 1 7 16 13 12 11 10 9 11 12 10 12 11 5 6 6 5 6 5 7 10 9 6 8 8 8 7 8 8 9 10 8 8 8 7 6 8 7 6 7 7 7 8 8 8 8 8 9 10 8 8 10 9 10 10 11 12 10 10 8 6 6 7 6 5 5 5 5 5 4 3 2 3
8 16 8 12 14 14 17 18 17 11 11 10 12 10 11 11 11 10 6 7 7 5 1 5 3 6 14 16 10 10 10 10 10 11 12 12 11 9 8 5 1 4 8 8 8 11 8 8 9 9 7 8 8 9 9 8 7 8 7 8 9 8 8 9 9 10 9 10 10 8 8 9 9 9 8 8 8 8 8 9 10 10 10 9 9 7 6 5 6 5 5 4 4 3 3 2 4
10 12 16 15 17 18 18 18 14 11 12 10 11 12 9 7 11 7 6 7 7 7 8 7 4 7 6 10 9 9 8 8 8 10 11 11 10 9 8 4 3 6 6 3 10 8 13 9 9 9 8 7 7 8 10 8 8 8 9 9 8 9 9 8 8 8 9 8 7 9 9 9 10 9 9 10 9 8 7 7 8 8 7 7 7 7 7 7 6 6 5 5 5 5 5 4 5
10 13 18 18 17 17 17 17 14 12 13 15 17 10 9 9 9 11 7 4 3 2 6 5 7 8 9 7 8 8 9 7 6 9 10 9 9 10 8 8 6 7 6 3 0 4 9 13 8 9 9 8 8 7 10 9 9 9 9 9 9 10 10 9 11 9 8 8 9 10 8 8 10 10 9 9 9 7 7 8 8 8 7 6 7 7 7 6 5 5 6 6 5 5 6 6 4
13 17 17 16 16 16 16 13 11 12 12 10 10 8 8 7 8 5 4 6 1 3 6 8 11 13 9 9 7 9 8 8 8 9 10 9 9 8 7 6 7 7 5 3 2 4 6 8 13 9 9 9 9 10 9 11 9 9 9 9 10 9 9 9 8 8 9 9 10 9 9 9 9 9 9 9 9 9 9 9 10 9 8 7 7 7 6 6 7 7 7 6 7 7 6 6 6
12 14 15 16 17 18 18 15 15 12 10 8 11 8 8 8 4 2 5 5 5 4 8 13 12 8 7 7 7 8 9 12 14 13 12 10 9 9 8 8 10 9 6 5 4 6 6 6 13 14 11 9 9 10 10 11 11 9 10 10 11 10 9 9 9 10 10 9 10 10 9 9 9 8 9 10 9 10 10 9 9 9 9 9 8 8 8 8 7 6 6 6 6 6 7 6 7
17 15 13 13 14 10 11 12 10 9 6 9 10 9 8 9 5 6 2 2 4 7 5 4 5 11 7 7 7 8 7 9 9 10 11 11 11 11 11 12 10 10 9 7 6 5 5 9 10 12 13 9 9 10 11 12 11 11 10 11 12 11 11 9 8 10 10 10 10 10 10 9 9 9 8 8 10 10 9 8 8 7 7 8 8 9 9 8 7 7 7 8 8 8 6 7 8
15 10 11 11 9 9 9 8 8 6 7 8 7 8 10 8 3 5 10 12 10 11 12 12 12 12 11 11 11 11 11 9 8 9 11 11 9 11 11 11 11 10 10 10 8 6 5 4 7 11 13 12 10 10 10 11 10 11 11 11 12 11 10 9 9 9 11 11 11 10 10 9 9 9 9 8 9 10 9 9 10 9 9 9 9 8 8 8 8 8 7 8 8 7 6 8 8
10 10 9 8 7 5 4 7 5 5 8 8 11 14 10 5 10 8 8 8 12 13 12 12 12 12 12 12 13 11 11 11 10 10 9 9 10 11 11 10 11 10 10 10 11 11 9 8 7 10 13 12 11 9 9 10 10 11 11 11 10 9 10 9 9 9 9 10 10 10 10 10 9 9 9 10 10 11 9 9 10 9 9 9 9 9 8 9 9 8 8 8 8 8 7 8 6
11 9 7 8 8 5 5 6 5 7 8 10 14 19 10 8 8 9 14 14 13 12 11 12 12 11 11 12 11 11 11 12 11 10 10 9 9 10 9 10 11 11 11 11 11 10 10 10 10 13 16 16 15 13 16 13 11 11 10 10 9 9 9 9 8 8 8 8 7 9 9 9 9 10 10 10 10 11 9 9 9 9 9 8 8 9 9 8 8 7 7 8 9 8 7 8 7
10 11 10 9 8 7 5 7 6 9 11 13 15 12 5 10 6 17 8 11 10 10 11 10 10 9 8 10 11 11 12 12 12 12 10 10 8 8 7 8 9 10 11 11 10 11 11 12 7 9 8 12 13 13 12 13 12 14 11 11 10 8 8 8 8 7 6 7 7 8 8 8 8 8 9 8 10 10 11 9 9 9 10 9 9 9 9 9 8 8 8 9 8 7 7 7 7
8 7 9 9 6 5 7 8 11 11 12 10 6 5 8 8 6 11 11 6 10 9 9 5 7 7 8 8 10 10 10 15 15 17 17 17 13 9 7 8 8 9 11 10 12 11 12 11 6 1 2 9 11 8 6 8 10 11 13 15 15 11 8 7 6 6 5 4 6 7 7 8 7 7 8 8 9 10 10 10 10 9 10 8 9 9 9 7 7 8 8 7 8 6 7 8 7
8 12 8 7 11 10 6 7 10 10 7 7 4 7 6 7 4 15 16 14 10 10 7 12 16 18 19 16 16 18 16 15 16 16 16 17 17 18 18 11 7 7 8 9 11 12 14 8 6 8 7 7 9 10 9 8 9 7 9 11 15 16 13 9 7 7 6 5 5 6 6 7 7 7 7 7 9 9 8 9 9 9 10 9 9 8 9 8 8 8 7 8 8 7 6 6 6
8 8 7 11 10 11 6 6 4 5 9 6 7 9 9 9 2 7 11 8 5 9 15 18 16 17 17 16 16 16 17 16 17 19 17 17 17 17 16 17 20 17 14 12 12 12 12 8 9 9 10 8 8 10 10 9 10 9 8 8 11 12 14 15 10 8 7 7 6 5 6 6 7 7 7 7 8 9 9 10 8 9 9 9 9 8 9 10 9 8 8 7 6 5 5 1 1
11 10 7 9 4 8 5 4 7 7 7 5 7 10 10 7 6 7 5 5 9 14 13 16 16 15 15 15 17 17 17 17 17 17 17 16 16 15 16 18 17 17 18 19 16 14 13 11 10 9 8 5 9 8 8 8 7 7 6 6 6 9 9 14 13 10 7 7 7 5 5 6 6 6 6 8 8 9 9 9 9 9 8 9 9 9 9 9 9 7 8 7 6 7 6 6 4
2 5 8 8 9 8 8 5 7 7 10 9 10 12 7 5 6 7 18 18 17 13 14 13 14 14 13 13 14 15 15 14 16 15 15 15 16 18 19 16 18 18 18 17 18 17 16 15 12 12 8 7 7 8 7 7 9 7 8 7 5 6 7 7 8 11 13 10 8 5 6 7 7 6 7 8 8 9 10 10 9 9 10 10 9 8 10 8 8 7 7 7 6 7 7 6 4
8 8 8 7 7 8 10 8 9 8 7 8 8 10 6 4 8 11 14 12 13 13 11 11 11 12 12 12 12 12 14 13 13 14 14 15 14 15 17 17 18 18 16 17 17 17 17 13 14 12 14 10 7 6 7 5 4 7 7 3 1 1 5 7 8 5 7 9 10 9 6 5 6 7 7 9 10 10 11 11 11 10 10 9 10 9 9 8 9 9 8 7 7 6 6 6 6
8 7 9 8 8 8 6 8 7 8 8 6 7 11 11 4 9 14 12 12 11 12 12 9 11 12 13 11 12 11 11 13 13 13 14 13 14 15 16 16 16 16 16 20 17 17 17 18 14 13 13 12 11 8 5 4 2 4 5 4 5 4 5 7 7 7 6 9 8 6 10 7 7 7 7 9 11 9 11 11 11 12 11 11 11 10 9 9 8 10 9 7 7 8 7 8 8
Wind_Direction
276 265 259 251 238 249 275 231 249 223 233 275 286 230 246 229 176 231 220 269 155 189 34 318 31 23 25 42 94 152 157 76 83 311 127 107 151 127 140 147 138 152 147 147 137 150 154 151 147 145 142 140 137 138 138 137 136 138 136 136 136 131 130 129 128 128 128 128 126 127 129 129 126 123 122 119 114 117 122 116 121 124 114 105 110 114 113 108 105 103 109 111 113 113 111 108 107
267 269 260 239 252 264 252 187 251 34 254 242 229 254 232 240 208 175 209 144 178 108 17 6 39 55 131 105 65 123 77 89 66 97 92 121 130 142 146 161 159 173 131 138 147 160 160 155 149 146 142 142 140 139 142 142 141 139 140 141 137 135 134 134 133 132 131 131 131 133 134 132 129 127 129 126 128 126 115 113 111 106 80 108 118 118 113 116 112 110 106 114 112 114 111 110 108
273 286 289 267 234 217 310 272 275 292 301 302 133 213 216 220 12 86 63 10 45 34 53 104 205 22 67 39 35 13 110 62 89 93 108 133 141 159 160 165 164 135 142 153 157 165 160 155 152 149 147 146 145 147 147 147 145 141 140 141 142 136 139 139 137 139 139 138 140 140 139 133 131 130 129 129 127 118 115 109 109 104 111 95 123 115 120 114 116 113 116 117 114 113 115 113 112
276 276 278 287 292 226 202 208 254 238 287 317 320 173 190 158 34 64 52 10 61 260 358 55 39 6 45 77 19 36 33 47 104 129 132 168 178 153 161 173 160 138 147 154 162 166 157 152 158 153 152 151 151 152 153 150 146 145 144 144 145 143 144 144 146 147 146 148 146 144 141 136 132 130 129 130 128 126 125 126 123 125 130 121 86 126 109 120 119 117 119 120 120 120 112 115 116
261 263 257 264 281 266 92 201 273 299 176 322 359 22 27 78 89 30 85 26 57 345 344 90 66 317 52 29 77 105 41 88 74 84 124 138 114 147 166 139 151 159 151 158 167 161 153 150 159 157 155 153 155 155 154 152 150 148 147 145 145 145 147 148 149 153 152 151 148 143 139 137 136 136 137 141 142 140 140 139 141 133 128 132 127 126 124 122 121 121 120 122 127 124 123 122 123
246 256 250 253 246 324 247 222 245 270 269 189 349 29 32 23 37 10 27 72 4 89 33 93 153 150 73 6 26 142 324 130 101 136 131 130 137 140 148 135 159 175 155 165 169 162 150 153 160 159 159 158 159 159 157 154 153 151 149 147 147 148 151 151 154 155 154 150 145 143 142 140 142 146 152 151 150 151 148 148 146 141 137 139 144 139 134 131 127 124 123 127 130 134 134 129 131
261 256 243 215 238 276 287 168 208 221 10 351 19 38 335 43 350 32 90 57 280 46 311 91 140 76 52 134 51 66 68 90 191 106 134 132 137 152 145 157 160 168 177 167 173 164 149 156 163 163 163 162 161 161 160 158 156 154 152 150 149 152 155 157 156 156 151 148 146 148 147 148 151 157 158 155 153 152 153 147 142 140 140 137 143 147 148 142 129 126 132 129 128 135 134 135 137
255 273 296 327 316 219 263 8 305 81 79 19 61 50 344 13 38 346 23 204 44 84 297 132 88 102 206 46 132 180 156 127 291 97 118 136 144 149 146 158 164 168 169 197 139 144 147 157 165 166 166 163 162 163 162 159 157 156 154 153 154 155 158 159 158 151 149 148 150 151 148 157 161 163 156 156 157 155 152 152 142 141 139 146 148 148 148 152 129 135 131 129 136 137 145 146 153
259 250 249 259 270 285 265 97 323 318 82 94 84 85 326 82 26 295 32 0 315 6 20 28 51 109 211 151 121 159 114 133 118 114 131 140 146 151 156 160 173 156 176 172 135 133 151 161 164 166 166 168 165 164 163 162 159 158 158 156 157 158 159 158 156 152 150 152 152 147 155 164 167 165 159 160 161 157 156 148 150 149 143 149 152 138 149 144 136 140 139 141 145 149 148 158 161
263 247 282 289 312 285 322 351 81 30 350 88 38 68 343 9 304 334 30 32 8 269 62 62 35 101 142 94 123 138 146 127 121 129 135 144 150 162 161 164 164 154 181 136 142 143 157 164 163 164 165 171 168 164 165 162 160 160 161 160 160 159 159 156 153 154 153 156 149 153 164 170 171 169 167 167 164 160 157 153 156 149 140 136 134 144 137 133 140 147 149 150 154 157 162 165 170
275 253 246 262 294 309 33 321 51 333 63 6 56 4 53 334 339 24 1 324 80 31 320 49 99 311 112 85 91 106 129 134 149 144 147 147 157 168 167 158 145 163 175 146 152 160 154 168 166 163 163 168 163 165 164 159 161 161 162 164 162 161 157 154 153 153 156 157 154 164 174 178 175 173 173 168 167 161 162 160 158 150 153 146 141 137 139 145 149 151 153 156 159 163 171 169 177
276 277 212 257 289 323 54 300 58 346 47 356 39 23 20 297 66 27 335 342 246 79 330 32 79 294 81 125 141 158 142 158 155 148 149 153 158 178 164 155 142 177 161 146 158 158 156 170 168 166 164 164 158 164 161 161 162 165 167 166 165 160 156 152 154 157 163 163 169 176 183 184 177 177 180 173 172 167 170 166 156 152 154 149 148 148 149 152 155 153 156 163 166 169 179 190 188
263 277 319 306 324 309 337 2 85 141 353 56 68 19 31 317 26 48 342 296 12 0 60 3 360 292 107 71 123 143 168 160 147 149 151 166 160 168 162 134 146 172 148 162 143 157 159 169 166 168 166 161 160 164 170 175 175 175 173 168 163 157 156 158 160 166 174 169 177 186 191 189 182 181 185 180 175 173 175 168 161 156 154 152 154 156 156 156 159 161 164 167 179 186 186 201 202
289 340 324 298 304 286 21 296 33 341 70 327 61 338 24 342 327 50 281 15 312 1 353 70 268 16 101 117 160 153 162 148 147 148 162 161 153 161 154 133 161 158 172 145 153 154 170 162 167 166 163 160 161 169 181 187 182 178 173 164 159 163 163 169 174 174 178 176 184 188 194 190 184 182 187 195 187 178 179 171 171 163 161 162 160 163 162 163 164 168 171 175 184 196 202 201 211
284 339 308 284 290 289 62 315 34 1 56 319 49 350 330 2 310 45 317 38 316 325 269 263 94 296 137 145 98 141 162 156 150 155 165 138 151 151 144 145 157 162 181 157 165 154 172 158 170 165 159 156 166 187 188 188 184 179 169 151 167 168 169 170 187 177 185 181 186 188 194 190 188 186 189 192 216 183 184 180 178 172 171 171 169 166 170 168 167 171 178 182 190 202 213 220 218
269 290 301 304 304 312 48 322 41 295 13 315 10 334 335 360 309 10 319 36 310 262 239 72 273 179 49 127 172 181 153 150 151 164 145 144 147 153 147 155 163 163 187 181 161 165 166 163 166 160 134 163 196 187 178 181 185 181 153 145 192 158 156 196 213 178 206 195 192 190 197 193 190 195 193 195 212 192 188 185 183 177 175 179 175 173 175 174 171 174 180 188 196 208 228 239 241
290 290 279 272 315 331 40 324 9 348 346 312 8 318 352 323 317 323 344 292 264 341 357 276 233 115 188 125 121 151 146 141 153 158 147 150 157 161 163 167 167 176 175 188 198 159 165 171 166 134 126 200 196 176 169 184 181 178 147 157 176 181 182 196 198 203 227 215 202 197 197 191 193 189 202 198 199 203 191 193 183 186 181 180 183 182 181 181 176 178 184 192 201 217 231 245 257
294 273 278 273 283 351 15 341 350 0 293 343 337 329 313 333 334 315 321 313 7 282 307 337 309 182 153 137 129 138 142 151 158 157 163 159 168 170 176 170 183 179 180 185 207 162 163 170 173 130 156 197 183 187 165 167 173 177 143 165 175 170 181 204 205 208 234 230 207 204 195 193 185 196 207 196 195 203 193 195 184 188 185 187 188 191 189 187 186 185 190 195 205 216 229 245 245
252 272 275 304 315 21 1 314 322 357 333 344 308 321 330 308 332 302 297 310 320 350 256 237 234 7 114 120 126 137 146 155 160 169 168 170 182 177 176 179 181 175 185 182 189 186 161 167 178 140 168 186 174 169 172 171 168 162 152 154 164 169 188 197 200 207 218 227 209 200 196 195 170 181 206 209 194 201 191 192 186 187 189 191 198 200 197 196 193 197 198 200 211 222 232 243 253
208 249 282 277 336 348 323 325 338 333 337 307 336 318 306 305 276 286 303 341 307 276 325 316 339 71 102 115 133 143 157 160 168 172 178 182 185 177 184 174 183 182 183 185 177 183 177 170 169 157 157 178 158 171 168 172 154 162 154 146 160 177 189 197 193 198 214 220 212 198 209 169 140 179 223 217 214 207 211 186 192 189 195 197 203 203 210 212 208 210 209 211 213 228 231 243 241
70 296 279 313 332 314 302 347 332 328 314 322 299 301 287 284 336 334 280 277 283 284 282 351 50 128 141 140 148 156 164 166 174 181 187 189 192 179 189 179 180 182 181 184 176 172 178 173 161 146 150 166 163 164 166 175 152 154 147 154 194 180 181 191 184 199 210 209 214 213 205 162 150 166 168 204 167 174 117 236 206 195 193 198 203 213 202 218 213 220 217 219 225 226 233 234 240
261 286 299 282 276 286 332 325 324 313 317 297 303 305 316 342 281 294 322 292 289 322 329 331 348 80 135 151 162 165 171 175 180 187 191 196 191 183 186 179 181 176 177 187 179 163 173 170 156 135 158 171 162 161 166 169 158 165 142 151 187 222 189 176 188 203 212 201 197 209 201 130 128 174 126 121 127 29 20 301 265 219 203 202 196 219 199 217 203 228 215 207 225 233 231 237 237
279 279 294 306 314 306 286 307 312 310 307 303 304 310 329 295 306 276 273 299 315 284 280 294 309 266 148 158 161 179 175 184 185 192 193 197 194 188 184 188 180 182 180 187 176 159 162 167 161 138 168 174 150 136 146 159 164 164 135 140 184 202 181 171 202 216 205 187 188 186 163 119 103 249 149 120 124 145 171 216 224 271 256 240 220 214 213 206 206 223 219 210 211 230 231 234 234
315 296 295 276 267 270 327 302 297 307 303 295 298 303 280 303 292 314 290 265 279 326 325 314 259 288 177 167 165 181 185 188 191 195 194 197 194 189 185 189 183 182 182 186 175 155 159 166 166 146 173 165 133 143 152 161 158 163 130 150 186 196 186 189 205 213 204 173 177 160 166 169 132 217 144 153 164 175 197 196 188 243 233 222 229 240 237 196 203 213 227 210 207 220 230 237 235
279 274 273 299 319 313 296 290 296 298 286 285 295 292 289 284 276 284 285 296 272 287 347 296 285 266 284 128 174 178 191 192 195 192 194 202 195 186 189 196 185 185 186 183 178 151 156 163 171 149 177 176 131 144 156 156 170 162 140 151 166 188 198 194 196 186 172 162 184 180 165 169 162 226 180 171 180 190 193 166 163 219 236 235 215 253 249 225 191 201 223 218 202 218 229 232 254
291 306 321 307 289 296 301 301 289 276 281 292 293 277 278 278 296 282 272 246 226 250 247 242 239 214 229 201 171 169 194 184 194 182 190 200 186 183 193 197 192 193 190 176 178 155 150 160 171 152 174 179 152 141 151 160 165 152 150 162 165 177 196 187 186 185 173 178 187 176 177 181 180 175 177 171 181 191 175 183 190 204 208 222 217 239 248 245 189 197 220 222 211 216 233 227 221
303 294 296 297 297 291 281 274 275 277 277 284 270 281 283 286 274 275 157 273 356 323 265 264 264 271 168 198 229 158 173 184 152 132 163 207 203 194 195 198 200 197 189 177 177 163 147 158 171 152 167 172 163 141 140 153 158 152 155 163 164 180 182 186 191 189 188 193 178 174 180 176 180 166 166 170 192 197 167 188 199 200 214 220 221 247 255 254 182 204 234 212 240 224 231 237 185
308 312 303 291 285 281 276 271 274 260 251 285 302 293 293 281 281 280 285 213 76 286 278 285 294 289 289 264 182 158 146 121 140 164 167 187 212 206 205 203 202 192 197 183 177 162 150 158 166 169 159 166 165 146 137 142 150 150 154 164 183 189 182 186 190 185 191 186 180 179 182 174 170 174 188 175 184 191 176 185 197 199 216 231 230 248 265 257 216 205 235 220 244 226 229 246 175
304 298 289 284 280 274 263 263 260 273 294 284 309 303 276 254 238 240 237 133 269 288 303 257 263 280 281 273 210 152 146 147 133 155 145 163 229 217 223 220 213 200 201 185 179 161 156 159 164 175 153 164 159 158 135 129 131 132 159 189 197 188 184 176 182 189 185 180 178 183 177 159 163 179 189 201 185 182 170 166 189 210 223 224 234 255 276 282 242 226 223 225 225 246 223 237 201
289 278 278 283 279 278 312 199 230 229 284 3 315 285 309 314 220 260 330 267 227 226 287 323 306 287 293 327 292 230 128 120 100 97 116 149 192 246 240 225 225 216 204 185 185 169 152 161 165 171 161 159 171 154 130 126 127 131 180 197 193 184 181 156 173 195 188 184 180 182 177 158 158 167 184 193 191 173 168 178 191 206 223 223 250 268 280 276 234 225 226 230 220 242 275 232 240
274 280 267 258 267 287 21 182 155 220 119 275 286 284 301 311 316 198 249 249 257 292 296 263 307 320 317 321 305 49 88 88 108 118 98 137 155 247 257 223 232 220 223 189 190 173 151 163 164 169 169 162 160 160 140 125 134 154 191 197 189 180 162 177 190 185 182 177 188 186 182 157 162 164 191 184 183 182 186 189 201 208 208 232 252 260 262 262 246 247 207 225 203 175 295 284 263
261 255 262 295 301 329 3 322 152 150 156 314 340 281 273 287 306 303 237 257 335 307 299 307 288 278 261 296 5 44 111 109 122 134 137 132 140 146 220 287 247 221 229 196 188 173 159 163 165 165 167 168 158 157 150 131 147 197 204 178 172 173 166 183 194 191 185 182 187 184 184 177 165 168 181 179 185 181 183 196 202 214 207 211 236 260 279 274 228 249 245 215 192 173 238 259 251
258 255 308 310 325 340 346 297 339 342 45 219 233 287 287 271 303 320 323 308 272 281 274 270 276 314 303 349 55 86 97 94 94 126 130 147 200 164 162 198 221 222 227 199 185 177 163 165 165 169 168 172 160 150 149 132 161 213 231 202 168 155 168 180 197 192 187 193 195 196 181 183 175 171 179 178 171 179 181 181 200 210 218 218 228 246 263 276 283 249 237 187 234 199 208 239 232
337 346 331 332 328 332 309 340 292 144 202 288 204 223 292 297 290 277 276 277 264 285 299 295 299 321 339 10 81 93 91 102 116 136 158 177 198 182 183 195 215 214 228 213 184 180 168 166 167 175 164 173 158 159 147 148 168 194 228 234 211 182 179 180 190 192 187 186 200 203 172 175 185 175 181 176 168 174 178 179 182 199 209 216 223 254 269 296 291 299 248 198 215 221 218 241 201
343 342 328 320 322 310 293 291 342 331 299 283 322 314 290 285 283 284 306 325 314 275 279 328 329 312 274 213 94 99 94 87 96 95 36 152 183 188 174 171 195 209 223 220 181 175 166 168 166 176 163 170 164 158 155 151 160 175 195 219 223 221 206 193 186 191 185 183 195 201 176 174 179 176 181 176 162 176 178 176 180 193 194 199 218 232 258 275 324 344 341 343 337 305 257 309 219
340 327 310 298 297 305 315 302 271 304 338 346 308 288 308 311 313 308 296 290 299 302 303 303 278 286 336 331 134 121 109 105 58 35 29 32 43 30 30 31 4 232 219 216 191 188 178 171 171 171 167 173 161 158 159 161 156 167 181 195 211 216 200 193 190 192 180 179 183 189 198 168 182 181 182 172 168 178 186 187 185 190 189 185 197 206 226 233 248 263 310 339 343 328 304 30 332
312 305 300 306 301 288 279 288 329 348 309 282 280 310 286 291 291 291 286 282 275 280 283 273 293 303 302 37 68 91 103 87 57 44 41 42 47 51 76 81 19 320 268 216 206 204 189 188 178 176 169 173 173 168 170 175 174 174 169 178 191 199 196 189 191 193 189 183 180 179 185 175 186 182 168 171 172 198 208 205 188 190 189 196 193 206 207 220 223 174 237 228 309 317 297 272 245
307 296 290 287 295 301 302 317 323 316 352 317 321 328 317 299 301 302 302 293 286 283 279 271 257 222 91 77 71 67 68 61 57 70 50 33 45 47 54 72 105 257 282 262 209 208 205 188 187 178 171 176 185 179 169 182 185 185 177 182 183 188 187 183 189 192 190 181 178 175 175 181 186 172 170 175 182 196 195 200 209 200 202 205 201 192 195 195 187 199 210 197 238 241 259 257 195
275 277 275 263 270 310 307 292 328 349 330 316 317 314 306 292 288 292 284 288 275 258 253 253 264 308 67 69 71 67 62 72 69 42 48 84 114 120 112 100 120 190 250 248 210 210 204 198 195 187 182 178 190 180 175 184 184 192 186 178 182 184 192 189 186 185 179 176 173 172 177 188 197 177 170 194 179 185 196 202 216 214 208 203 198 195 200 196 192 186 186 177 219 224 250 283 245
259 260 280 316 314 302 309 344 359 332 331 296 285 279 276 282 269 263 278 325 327 282 312 334 320 354 93 80 72 65 61 38 35 65 24 18 21 114 101 81 292 280 276 285 251 211 208 199 201 195 189 186 192 189 186 183 185 191 191 173 185 185 186 183 185 175 176 169 176 182 186 193 189 184 177 190 180 179 174 179 204 236 228 205 191 192 199 201 188 189 187 191 215 242 357 302 120
328 308 277 285 319 330 320 327 323 304 278 287 289 281 276 286 285 301 322 318 314 304 292 279 127 83 82 72 72 71 64 53 40 33 25 28 20 37 106 87 30 334 311 277 284 245 197 207 205 201 193 191 197 199 192 180 183 192 188 177 175 193 172 177 186 181 178 183 180 183 190 191 189 194 189 186 185 183 179 171 188 201 208 201 194 197 198 200 192 185 184 185 188 188 223 285 302
294 306 341 339 341 316 315 315 306 296 296 279 317 325 318 336 312 290 289 269 280 326 295 30 349 97 102 104 92 74 63 53 41 35 33 32 16 22 73 92 355 233 236 196 227 275 248 199 205 200 197 192 202 203 196 186 181 190 183 188 179 188 184 176 189 188 184 188 194 184 186 188 189 185 195 193 194 180 180 188 186 192 189 192 192 191 185 180 184 176 176 171 184 175 163 216 290
313 306 338 330 324 313 299 297 310 304 303 313 303 282 290 278 293 314 292 290 310 328 324 272 47 69 90 80 70 82 72 65 60 47 40 32 28 22 23 19 213 241 261 201 173 211 275 242 201 199 196 195 203 204 200 194 186 194 199 196 189 189 192 190 187 190 186 189 188 186 187 185 190 193 191 194 195 182 177 177 190 198 196 190 187 185 182 190 185 169 159 166 183 172 167 197 226
295 314 322 315 298 302 313 308 297 293 282 281 273 272 303 311 304 320 323 304 314 280 329 349 79 72 63 29 31 47 90 82 57 59 51 39 30 25 6 345 337 329 314 268 239 155 253 280 246 197 195 196 198 206 205 204 198 192 199 198 198 197 198 190 187 189 186 184 190 190 187 185 193 196 191 197 188 172 176 185 191 194 199 190 190 191 187 184 178 163 166 172 176 187 169 191 222
305 300 294 299 303 293 286 283 280 268 271 273 290 295 287 292 325 310 40 300 98 26 113 66 49 63 56 48 7 16 38 78 75 67 57 44 32 25 2 349 335 318 312 331 160 183 234 273 287 245 207 196 196 203 204 207 210 200 203 204 205 205 201 197 181 187 191 189 191 183 184 188 195 195 189 193 190 187 186 190 192 191 195 183 197 188 186 187 188 170 172 179 196 196 181 176 193
299 302 293 276 273 263 258 254 254 281 285 313 307 304 284 287 313 358 5 330 353 9 29 76 77 53 51 45 4 31 14 45 60 60 49 36 23 2 5 353 355 337 343 331 289 170 153 264 269 268 226 212 197 199 203 212 211 209 207 210 212 205 205 201 185 185 187 183 190 182 187 189 189 192 192 189 191 190 189 187 188 192 191 181 196 188 189 190 186 179 179 190 201 190 195 187 191
287 271 285 296 288 295 323 317 299 283 270 285 276 282 302 305 296 332 26 1 358 304 130 66 34 64 62 58 40 33 35 44 44 68 56 41 25 12 11 0 351 344 345 336 320 296 159 198 243 255 249 225 212 203 199 210 213 215 216 213 216 215 206 205 195 185 183 177 188 184 187 191 185 191 192 190 192 193 189 172 177 186 198 199 183 186 185 183 176 176 179 181 193 195 184 192 203
343 333 317 307 306 321 292 285 327 320 295 284 327 321 349 302 38 7 36 49 39 37 49 48 47 45 45 47 47 45 43 37 46 49 44 35 23 23 14 3 352 349 345 339 325 319 299 229 251 278 269 252 233 216 207 208 213 220 223 220 221 223 216 208 205 198 181 184 186 187 188 187 188 186 186 188 192 195 186 180 182 187 186 192 188 189 185 180 177 178 181 185 195 199 189 194 203
344 318 310 338 306 312 334 331 299 289 294 327 334 350 350 311 336 53 82 79 69 53 49 51 48 42 43 42 40 38 46 41 36 42 47 33 21 16 11 360 352 354 346 341 331 323 308 293 254 242 263 273 280 278 239 210 216 228 225 227 226 223 226 217 210 213 193 189 187 187 185 192 185 183 185 186 189 194 194 183 182 183 182 187 188 188 191 183 172 175 184 187 192 195 196 193 201
315 312 336 313 316 321 300 303 289 281 280 345 326 342 304 331 290 11 50 70 78 78 65 60 61 50 37 43 31 32 38 32 27 46 41 33 20 13 7 357 354 348 341 336 330 322 317 304 324 336 325 330 319 315 307 293 262 232 232 236 235 227 227 224 220 214 206 196 188 191 187 193 189 187 184 190 185 188 191 179 179 182 182 183 184 186 192 193 167 183 194 189 192 197 194 192 200
313 284 277 309 297 357 325 308 317 314 309 312 323 316 330 324 0 325 109 85 77 68 67 62 54 52 46 40 38 24 22 32 16 16 38 32 23 11 6 355 350 347 338 335 329 325 324 325 22 346 344 319 320 321 318 307 295 299 281 261 244 236 233 231 230 222 215 194 188 189 193 190 195 188 189 181 181 187 191 188 178 176 182 182 187 188 189 188 175 186 199 198 194 189 193 188 198
279 359 332 274 15 8 291 309 306 305 307 304 308 290 304 275 8 55 88 96 79 74 57 38 60 55 31 22 13 13 11 16 14 16 11 12 9 10 9 360 354 342 337 331 330 328 328 338 37 279 245 288 292 301 315 318 315 310 312 301 285 262 243 242 240 232 232 217 194 193 193 187 194 186 186 177 182 188 190 187 181 175 176 178 184 185 184 176 172 186 196 193 196 192 196 194 196
331 321 289 317 353 317 306 289 276 290 283 274 279 271 270 299 76 58 52 47 45 52 30 31 26 22 30 31 24 21 22 17 13 13 12 9 9 5 357 355 350 338 334 336 333 336 336 1 346 335 333 300 301 297 291 274 267 272 302 307 294 290 275 243 240 236 227 232 218 198 196 193 197 191 182 180 178 183 188 190 183 166 175 184 183 181 182 179 187 189 190 194 197 195 198 205 198
268 279 295 342 316 293 271 278 303 288 288 291 306 295 298 318 334 69 65 69 79 25 33 50 38 29 30 26 20 17 16 13 8 9 8 6 7 3 1 356 351 351 350 348 349 343 343 358 355 0 345 328 313 309 314 302 292 280 270 292 306 291 288 280 253 238 227 224 224 210 195 201 202 194 182 176 180 180 185 193 182 166 174 186 183 174 173 180 186 188 191 195 197 186 187 154 201
245 254 329 309 319 303 302 322 297 292 277 282 259 278 286 286 286 55 73 50 46 43 40 39 38 35 26 19 16 11 13 10 6 2 0 2 359 2 1 355 356 360 358 350 348 351 347 351 355 357 358 348 313 305 304 301 290 286 277 273 300 298 289 289 285 277 248 229 228 218 212 208 203 200 183 172 180 186 188 190 190 174 182 186 183 177 171 180 181 182 188 192 186 177 171 182 194
260 342 293 301 300 283 271 250 284 300 297 304 298 297 285 255 291 19 38 47 48 44 43 35 33 35 24 18 10 7 7 6 2 360 354 355 356 354 359 359 359 359 358 357 354 350 352 353 347 340 346 354 337 322 317 313 305 282 263 252 256 282 284 287 304 308 297 274 239 227 230 221 215 206 186 174 185 193 189 189 190 178 178 183 186 180 176 170 176 189 191 187 186 183 176 168 178
314 312 306 306 289 314 298 282 268 270 284 288 302 294 292 306 359 31 80 57 66 54 40 35 22 26 21 19 13 3 3 357 356 358 352 351 353 353 353 354 355 359 0 359 355 352 351 357 352 347 331 337 339 336 332 339 358 324 323 314 282 314 289 273 256 251 291 310 307 300 265 238 228 222 194 182 186 199 191 191 187 184 178 185 189 182 177 174 183 192 190 187 186 178 168 170 183
304 315 295 298 299 297 308 308 319 304 285 281 283 278 283 310 354 340 59 67 60 45 45 32 16 11 6 10 5 3 1 358 344 348 346 351 352 349 348 344 351 355 359 355 354 350 354 355 349 344 338 335 328 322 312 295 262 247 263 250 253 229 258 265 264 253 221 222 225 241 277 268 237 227 219 200 185 197 200 188 189 190 183 183 191 185 179 187 187 188 185 185 194 183 181 182 193